• en France
  • Liste des pays
  • À 7 jours
  • Température de l'eau
  • Carte satellitaire
  • Carte météo
  • Widgets météo
  • user-avatar
    Se connecter

    Météo par heure à Inkvalita

    Ce jour, 19 Août, Dimanche

    Heure Température Précipitation Vent Pression Humidité
    00:00 +14°C° 0,4 mm 2 m/s 633 mmHg 80%
    01:00 +13°C° 0 mm 2 m/s 633 mmHg 79%
    02:00 +13°C° 0 mm 2 m/s 633 mmHg 78%
    03:00 +13°C° 0 mm 2 m/s 633 mmHg 77%
    04:00 +13°C° 0 mm 2 m/s 633 mmHg 75%
    05:00 +13°C° 0 mm 2 m/s 633 mmHg 74%
    06:00 +13°C° 0 mm 2 m/s 633 mmHg 72%
    07:00 +15°C° 0 mm 2 m/s 634 mmHg 65%
    08:00 +17°C° 0 mm 2 m/s 635 mmHg 58%
    09:00 +18°C° 0 mm 2 m/s 636 mmHg 51%
    10:00 +19°C° 0 mm 3 m/s 636 mmHg 50%
    11:00 +19°C° 0 mm 3 m/s 636 mmHg 49%
    12:00 +20°C° 0 mm 3 m/s 636 mmHg 48%
    13:00 +19°C° 0,3 mm 3 m/s 636 mmHg 52%
    14:00 +19°C° 0,3 mm 3 m/s 636 mmHg 57%
    15:00 +18°C° 0,3 mm 3 m/s 635 mmHg 61%
    16:00 +17°C° 0,2 mm 3 m/s 635 mmHg 66%
    17:00 +16°C° 0,2 mm 2 m/s 635 mmHg 71%
    18:00 +15°C° 0,2 mm 2 m/s 635 mmHg 76%
    19:00 +14°C° 0,1 mm 2 m/s 635 mmHg 80%
    20:00 +13°C° 0,1 mm 1 m/s 635 mmHg 84%
    21:00 +12°C° 0,1 mm 1 m/s 635 mmHg 88%
    22:00 +12°C° 0 mm 1 m/s 635 mmHg 88%
    23:00 +11°C° 0 mm 1 m/s 635 mmHg 88%

    Demain, 20 Août, Lundi

    Heure Température Précipitation Vent Pression Humidité
    00:00 +11°C° 0 mm 1 m/s 635 mmHg 88%
    01:00 +11°C° 0 mm 1 m/s 635 mmHg 87%
    02:00 +10°C° 0 mm 1 m/s 635 mmHg 86%
    03:00 +10°C° 0 mm 1 m/s 635 mmHg 86%
    04:00 +10°C° 0 mm 1 m/s 635 mmHg 84%
    05:00 +11°C° 0 mm 1 m/s 635 mmHg 82%
    06:00 +11°C° 0 mm 1 m/s 636 mmHg 80%
    07:00 +13°C° 0 mm 1 m/s 636 mmHg 72%
    08:00 +15°C° 0 mm 2 m/s 637 mmHg 63%
    09:00 +17°C° 0 mm 2 m/s 638 mmHg 55%
    10:00 +18°C° 0 mm 2 m/s 638 mmHg 52%
    11:00 +19°C° 0 mm 3 m/s 639 mmHg 49%
    12:00 +20°C° 0 mm 3 m/s 639 mmHg 46%
    13:00 +20°C° 0 mm 3 m/s 639 mmHg 47%
    14:00 +20°C° 0 mm 3 m/s 639 mmHg 48%
    15:00 +20°C° 0 mm 3 m/s 638 mmHg 50%
    16:00 +19°C° 0 mm 3 m/s 638 mmHg 54%
    17:00 +18°C° 0 mm 3 m/s 638 mmHg 58%
    18:00 +17°C° 0 mm 3 m/s 637 mmHg 62%
    19:00 +15°C° 0 mm 2 m/s 637 mmHg 65%
    20:00 +14°C° 0 mm 2 m/s 637 mmHg 69%
    21:00 +13°C° 0 mm 2 m/s 636 mmHg 72%
    22:00 +13°C° 0 mm 2 m/s 636 mmHg 70%
    23:00 +12°C° 0 mm 2 m/s 636 mmHg 69%

    Après-demain, 21 Août, Mardi

    Heure Température Précipitation Vent Pression Humidité
    00:00 +12°C° 0 mm 2 m/s 636 mmHg 68%
    01:00 +12°C° 0 mm 2 m/s 635 mmHg 67%
    02:00 +12°C° 0 mm 2 m/s 635 mmHg 66%
    03:00 +12°C° 0 mm 2 m/s 635 mmHg 66%
    04:00 +12°C° 0 mm 2 m/s 635 mmHg 66%
    05:00 +13°C° 0 mm 2 m/s 635 mmHg 65%
    06:00 +13°C° 0 mm 2 m/s 636 mmHg 65%
    07:00 +15°C° 0 mm 2 m/s 636 mmHg 60%
    08:00 +17°C° 0 mm 2 m/s 637 mmHg 55%
    09:00 +19°C° 0 mm 2 m/s 637 mmHg 50%
    10:00 +20°C° 0 mm 2 m/s 637 mmHg 48%
    11:00 +21°C° 0 mm 2 m/s 638 mmHg 46%
    12:00 +22°C° 0 mm 3 m/s 638 mmHg 44%
    13:00 +22°C° 0,3 mm 3 m/s 637 mmHg 46%
    14:00 +22°C° 0,3 mm 3 m/s 637 mmHg 48%
    15:00 +22°C° 0,3 mm 3 m/s 637 mmHg 50%
    16:00 +21°C° 0,2 mm 3 m/s 636 mmHg 56%
    17:00 +20°C° 0,2 mm 2 m/s 636 mmHg 61%
    18:00 +18°C° 0,2 mm 2 m/s 636 mmHg 67%
    19:00 +17°C° 0,4 mm 2 m/s 636 mmHg 71%
    20:00 +16°C° 0,4 mm 2 m/s 636 mmHg 75%
    21:00 +15°C° 0,4 mm 2 m/s 635 mmHg 79%
    22:00 +15°C° 0 mm 2 m/s 635 mmHg 77%
    23:00 +14°C° 0 mm 2 m/s 635 mmHg 76%

    22 Août, Mercredi

    Heure Température Précipitation Vent Pression Humidité
    00:00 +14°C° 0 mm 2 m/s 635 mmHg 75%
    01:00 +14°C° 0 mm 2 m/s 635 mmHg 74%
    02:00 +14°C° 0 mm 1 m/s 635 mmHg 73%
    03:00 +13°C° 0 mm 1 m/s 634 mmHg 72%
    04:00 +14°C° 0 mm 1 m/s 635 mmHg 71%
    05:00 +14°C° 0 mm 1 m/s 635 mmHg 70%
    06:00 +14°C° 0 mm 1 m/s 635 mmHg 68%
    07:00 +16°C° 0 mm 1 m/s 636 mmHg 63%
    08:00 +20°C° 0 mm 1 m/s 636 mmHg 57%
    09:00 +22°C° 0 mm 1 m/s 637 mmHg 52%
    10:00 +23°C° 0 mm 2 m/s 637 mmHg 50%
    11:00 +23°C° 0 mm 2 m/s 637 mmHg 49%
    12:00 +24°C° 0 mm 2 m/s 638 mmHg 47%
    13:00 +24°C° 0,2 mm 2 m/s 637 mmHg 48%
    14:00 +24°C° 0,2 mm 2 m/s 637 mmHg 49%
    15:00 +24°C° 0,2 mm 2 m/s 637 mmHg 50%
    16:00 +23°C° 0,2 mm 2 m/s 637 mmHg 54%
    17:00 +21°C° 0,2 mm 2 m/s 637 mmHg 59%
    18:00 +21°C° 0,2 mm 1 m/s 636 mmHg 63%
    19:00 +20°C° 0,1 mm 1 m/s 636 mmHg 67%
    20:00 +18°C° 0,1 mm 1 m/s 636 mmHg 71%
    21:00 +16°C° 0,1 mm 1 m/s 636 mmHg 75%
    22:00 +16°C° 0 mm 1 m/s 636 mmHg 75%
    23:00 +15°C° 0 mm 1 m/s 636 mmHg 75%

    23 Août, Jeudi

    Heure Température Précipitation Vent Pression Humidité
    00:00 +15°C° 0 mm 1 m/s 636 mmHg 76%
    01:00 +15°C° 0,1 mm 1 m/s 636 mmHg 76%
    02:00 +15°C° 0,1 mm 1 m/s 636 mmHg 75%
    03:00 +14°C° 0,1 mm 1 m/s 636 mmHg 75%
    04:00 +15°C° 0 mm 1 m/s 636 mmHg 75%
    05:00 +15°C° 0 mm 1 m/s 636 mmHg 75%
    06:00 +15°C° 0 mm 1 m/s 636 mmHg 74%
    07:00 +18°C° 0 mm 1 m/s 637 mmHg 68%
    08:00 +20°C° 0 mm 1 m/s 638 mmHg 62%
    09:00 +20°C° 0 mm 2 m/s 639 mmHg 55%
    10:00 +21°C° 0,1 mm 2 m/s 639 mmHg 54%
    11:00 +23°C° 0,1 mm 2 m/s 639 mmHg 52%
    12:00 +22°C° 0,1 mm 3 m/s 639 mmHg 51%
    13:00 +22°C° 0,3 mm 3 m/s 638 mmHg 51%
    14:00 +22°C° 0,3 mm 3 m/s 638 mmHg 51%
    15:00 +22°C° 0,3 mm 3 m/s 638 mmHg 51%
    16:00 +21°C° 0,1 mm 3 m/s 638 mmHg 54%
    17:00 +20°C° 0,1 mm 2 m/s 638 mmHg 58%
    18:00 +19°C° 0,1 mm 2 m/s 638 mmHg 62%
    19:00 +17°C° 0 mm 2 m/s 637 mmHg 65%
    20:00 +16°C° 0 mm 2 m/s 637 mmHg 69%
    21:00 +15°C° 0 mm 1 m/s 637 mmHg 73%
    22:00 +14°C° 0 mm 1 m/s 637 mmHg 72%
    23:00 +14°C° 0 mm 1 m/s 637 mmHg 71%

    24 Août, Vendredi

    Heure Température Précipitation Vent Pression Humidité
    00:00 +14°C° 0 mm 1 m/s 637 mmHg 70%
    01:00 +14°C° 0 mm 1 m/s 637 mmHg 70%
    02:00 +13°C° 0 mm 1 m/s 637 mmHg 69%
    03:00 +13°C° 0 mm 1 m/s 637 mmHg 69%
    04:00 +13°C° 0 mm 2 m/s 637 mmHg 68%
    05:00 +13°C° 0 mm 2 m/s 637 mmHg 68%
    06:00 +14°C° 0 mm 2 m/s 637 mmHg 68%
    07:00 +16°C° 0 mm 2 m/s 638 mmHg 63%
    08:00 +18°C° 0 mm 2 m/s 638 mmHg 57%
    09:00 +20°C° 0 mm 3 m/s 639 mmHg 52%
    10:00 +21°C° 0 mm 3 m/s 639 mmHg 51%
    11:00 +22°C° 0 mm 3 m/s 639 mmHg 50%
    12:00 +22°C° 0 mm 4 m/s 639 mmHg 49%
    13:00 +22°C° 0 mm 4 m/s 639 mmHg 51%
    14:00 +22°C° 0 mm 4 m/s 639 mmHg 54%
    15:00 +21°C° 0 mm 4 m/s 638 mmHg 56%
    16:00 +20°C° 0 mm 4 m/s 638 mmHg 61%
    17:00 +19°C° 0 mm 3 m/s 638 mmHg 66%
    18:00 +18°C° 0 mm 3 m/s 637 mmHg 70%
    19:00 +16°C° 0 mm 3 m/s 637 mmHg 72%
    20:00 +15°C° 0 mm 2 m/s 637 mmHg 74%
    21:00 +14°C° 0 mm 2 m/s 637 mmHg 76%
    22:00 +14°C° 0 mm 2 m/s 636 mmHg 74%
    23:00 +14°C° 0 mm 2 m/s 636 mmHg 71%
    Voir plus